TimeEDT,TemperatureF,Dew PointF,Humidity,Sea Level PressureIn,VisibilityMPH,Wind Direction,Wind SpeedMPH,Gust SpeedMPH,PrecipitationIn,Events,Conditions,WindDirDegrees,DateUTC
12:53 AM,48.0,46.0,93,29.48,10.0,Calm,Calm,-,N/A,,Overcast,0,2012-11-02 04:53:00
1:46 AM,46.4,44.6,93,29.46,10.0,Calm,Calm,-,N/A,,Mostly Cloudy,0,2012-11-02 05:46:00
1:53 AM,46.9,45.0,93,29.47,10.0,SSW,3.5,-,N/A,,Mostly Cloudy,210,2012-11-02 05:53:00
2:28 AM,46.4,44.6,93,29.46,8.0,Calm,Calm,-,N/A,,Mostly Cloudy,0,2012-11-02 06:28:00
2:53 AM,46.0,44.1,93,29.47,9.0,Calm,Calm,-,N/A,,Scattered Clouds,0,2012-11-02 06:53:00
3:18 AM,44.6,42.8,93,29.46,9.0,South,3.5,-,N/A,,Mostly Cloudy,170,2012-11-02 07:18:00
3:53 AM,46.0,44.1,93,29.47,8.0,South,3.5,-,N/A,,Mostly Cloudy,190,2012-11-02 07:53:00
4:01 AM,46.4,44.6,93,29.46,7.0,South,3.5,-,N/A,,Overcast,190,2012-11-02 08:01:00
4:53 AM,46.0,44.1,93,29.48,8.0,SSW,3.5,-,N/A,,Overcast,200,2012-11-02 08:53:00
5:26 AM,46.4,42.8,87,29.47,9.0,SSW,3.5,-,N/A,,Overcast,200,2012-11-02 09:26:00
5:45 AM,46.4,44.6,93,29.47,6.0,South,3.5,-,N/A,,Overcast,190,2012-11-02 09:45:00
5:53 AM,46.0,43.0,89,29.48,6.0,SSW,4.6,-,N/A,,Overcast,200,2012-11-02 09:53:00
6:23 AM,44.6,42.8,93,29.46,8.0,SSW,3.5,-,N/A,,Overcast,200,2012-11-02 10:23:00
6:53 AM,45.0,43.0,93,29.47,9.0,South,3.5,-,N/A,,Overcast,180,2012-11-02 10:53:00
7:02 AM,44.6,42.8,93,29.46,9.0,Calm,Calm,-,N/A,,Overcast,0,2012-11-02 11:02:00
7:53 AM,45.0,43.0,93,29.48,6.0,Calm,Calm,-,N/A,,Overcast,0,2012-11-02 11:53:00
8:53 AM,46.0,43.0,89,29.49,8.0,SSW,4.6,-,N/A,,Overcast,200,2012-11-02 12:53:00
9:53 AM,46.9,44.1,90,29.49,7.0,WSW,5.8,-,N/A,,Overcast,240,2012-11-02 13:53:00
10:53 AM,48.0,44.1,86,29.49,10.0,Calm,Calm,-,N/A,,Overcast,0,2012-11-02 14:53:00
11:25 AM,48.2,44.6,87,29.48,10.0,SW,4.6,-,N/A,,Overcast,220,2012-11-02 15:25:00
11:32 AM,48.2,44.6,87,29.48,9.0,WSW,4.6,-,N/A,,Overcast,240,2012-11-02 15:32:00
11:50 AM,48.2,44.6,87,29.48,9.0,SW,4.6,-,0.00,Rain,Light Rain,230,2012-11-02 15:50:00
11:53 AM,48.9,44.1,83,29.49,10.0,SSW,3.5,-,0.00,,Overcast,210,2012-11-02 15:53:00
12:04 PM,48.2,44.6,87,29.48,10.0,SSW,4.6,-,N/A,,Overcast,200,2012-11-02 16:04:00
12:50 PM,48.2,42.8,82,29.47,10.0,SW,5.8,-,N/A,,Overcast,220,2012-11-02 16:50:00
12:51 PM,48.9,43.0,80,29.47,10.0,SSW,4.6,-,N/A,,Overcast,210,2012-11-02 16:51:00
1:53 PM,50.0,42.1,74,29.47,10.0,WSW,4.6,-,N/A,,Overcast,250,2012-11-02 17:53:00
2:53 PM,48.9,44.1,83,29.48,10.0,Calm,Calm,-,N/A,,Overcast,0,2012-11-02 18:53:00
3:16 PM,48.2,44.6,87,29.47,10.0,Calm,Calm,-,N/A,,Overcast,0,2012-11-02 19:16:00
3:53 PM,48.9,44.1,83,29.49,10.0,Calm,Calm,-,N/A,,Overcast,0,2012-11-02 19:53:00
4:08 PM,48.2,44.6,87,29.48,10.0,Calm,Calm,-,N/A,,Overcast,0,2012-11-02 20:08:00
4:53 PM,48.0,44.1,86,29.49,10.0,Calm,Calm,-,N/A,,Overcast,0,2012-11-02 20:53:00
5:21 PM,46.4,42.8,87,29.49,10.0,West,5.8,-,N/A,,Overcast,270,2012-11-02 21:21:00
5:53 PM,46.9,43.0,86,29.51,7.0,WNW,3.5,-,0.00,Rain,Light Rain,290,2012-11-02 21:53:00
6:35 PM,46.4,42.8,87,29.52,4.0,Calm,Calm,-,0.00,Rain,Light Rain,0,2012-11-02 22:35:00
6:46 PM,46.4,42.8,87,29.52,4.0,Calm,Calm,-,0.00,Rain,Light Rain,0,2012-11-02 22:46:00
6:53 PM,46.0,43.0,89,29.53,4.0,Calm,Calm,-,0.00,Rain,Light Rain,0,2012-11-02 22:53:00
7:53 PM,46.0,43.0,89,29.52,8.0,Calm,Calm,-,0.02,,Overcast,0,2012-11-02 23:53:00
8:53 PM,45.0,43.0,93,29.53,7.0,Calm,Calm,-,N/A,,Overcast,0,2012-11-03 00:53:00
9:53 PM,45.0,43.0,93,29.52,7.0,Calm,Calm,-,N/A,,Overcast,0,2012-11-03 01:53:00
10:33 PM,44.6,42.8,93,29.52,9.0,Calm,Calm,-,N/A,,Overcast,0,2012-11-03 02:33:00
10:53 PM,45.0,43.0,93,29.53,10.0,Calm,Calm,-,N/A,,Overcast,0,2012-11-03 02:53:00
11:53 PM,44.1,39.9,85,29.54,10.0,NW,4.6,-,N/A,,Overcast,310,2012-11-03 03:53:00